Simultaneous Nadir Overpasses (SNOs) Predictions

Prediction of SNOs between NPP and TERRA Satellite Orbit:

Table of predicted SNOs for the next 14.0 days since TLE Epoch: 3/17/2012
Index Date (NPP) Time (NPP) Lat,Lon (NPP) SZA (NPP ) Date (TERRA) Time (TERRA) Lat,Lon (TERRA) SZA (TERRA ) Distance(km) Time Diff (sec)
1 03/17/2012 19:12:24 -68.34, 70.34 110.78 03/17/2012 19:13:12 -68.35, 70.33 110.77 1.50 48
2 03/17/2012 20:03:08 68.22,-122.20 69.09 03/17/2012 20:02:40 68.19,-122.21 69.06 3.06 28
3 03/17/2012 20:53:32 -67.16, 46.41 112.02 03/17/2012 20:52:25 -67.24, 44.33 111.88 90.14 67
4 03/20/2012 10:38:51 69.17, 17.68 69.04 03/20/2012 10:39:59 69.04, 19.44 68.86 71.44 68
5 03/20/2012 11:29:18 -68.33,-173.88 111.85 03/20/2012 11:29:39 -68.31,-173.83 111.87 2.83 21
6 03/20/2012 12:20:01 68.16, -6.35 67.96 03/20/2012 12:19:07 68.15, -6.38 67.96 1.49 54
7 03/23/2012 02:55:30 68.35, 134.54 67.13 03/23/2012 02:56:37 68.36, 134.49 67.13 2.20 67
8 03/23/2012 03:46:12 -68.26, -58.03 112.98 03/23/2012 03:46:07 -68.25, -58.01 113.00 1.62 5
9 03/23/2012 04:36:50 67.82, 109.83 66.55 03/23/2012 04:35:38 67.91, 109.24 66.67 27.15 72
10 03/25/2012 19:12:25 68.34,-109.68 66.06 03/25/2012 19:13:04 68.33,-109.66 66.04 1.34 39
11 03/25/2012 20:03:06 -68.19, 57.82 114.11 03/25/2012 20:02:34 -68.22, 57.85 114.08 3.24 32
12 03/28/2012 10:38:46 -68.98,-162.07 114.33 03/28/2012 10:39:56 -68.84,-160.78 114.50 53.63 70
13 03/28/2012 11:29:19 68.27, 6.17
